Regional Weather Roundup
Issued by NWS

Home | Current Version | Previous Version | Graphics & Text | Print | Product List | Glossary On
Versions: 1 2 3 4 5 6 7 8 9 10 11 12 13 14 15 16 17 18 19 20 21 22 23 24 25 26 27 28 29 30 31 32 33 34 35 36 37 38 39 40 41 42 43 44 45 46 47 48 49 50
000
ASUS43 KMKX 232321
RWRWI

WISCONSIN REGIONAL WEATHER ROUNDUP
NATIONAL WEATHER SERVICE MILWAUKEE/SULLIVAN WI
600 PM CDT MON MAY 23 2016

NOTE: "FAIR" INDICATES FEW OR NO CLOUDS BELOW 12,000 FEET WITH NO
SIGNIFICANT WEATHER AND/OR OBSTRUCTIONS TO VISIBILITY.

WIZ001-002-006>008-014>016-023>028-240000-
NORTHWEST WISCONSIN

CITY           SKY/WX    TMP DP  RH WIND       PRES   REMARKS
SUPERIOR ARPT  CLOUDY    75  59  57 W6        29.73R
ASHLAND        TSTM      68  65  90 SW10      29.77R FOG
HAYWARD        TSTM      67  63  87 VRB3      29.79R FOG
SIREN          CLOUDY    67  64  91 S5        29.77S
CUMBERLAND     CLOUDY    72  63  73 W9        29.78R
RICE LAKE      HVY RAIN  76  60  57 SW10G20   29.79R
CHETEK         CLOUDY    77  59  53 SW7       29.77R
LADYSMITH      PTSUNNY   80  52  38 S20G25    29.79R HX  80
EAU CLAIRE     CLOUDY    82  52  35 S17       29.76S HX  81
MENOMONIE      CLOUDY    71  63  76 S7G17     29.77R
NEW RICHMOND   CLOUDY    74  59  58 SW17G24   29.77S
OSCEOLA        MOSUNNY   76  60  57 SW15G23   29.78F
$$

WIZ003>005-009-010-017-018-240000-
NORTH CENTRAL WISCONSIN

CITY           SKY/WX    TMP DP  RH WIND       PRES   REMARKS
MANITOWISH WTR LGT RAIN  72  55  55 CALM      29.79S
ARBOR VITAE    MOSUNNY   82  46  28 S14G20    29.80F HX  81
WOODRUFF       MOSUNNY   82  46  28 S14G20    29.80F HX  81
RHINELANDER    SUNNY     81  41  24 SW20G26   29.83R
EAGLE RIVER      N/A     81  35  19 SW14G25   29.81R
LAND O LAKES   MOSUNNY   81  37  20 SW10G23   29.81S
PHILLIPS       CLOUDY    78  52  39 S10G16    29.78F
TOMAHAWK       SUNNY     80  45  29 S8        29.81F
MEDFORD        CLOUDY    80  49  33 S17G28    29.81F
MERRILL        CLOUDY   N/A N/A N/A SW14G23   29.83S
$$

WIZ029-030-035-036-043>047-240000-
CENTRAL WISCONSIN

CITY           SKY/WX    TMP DP  RH WIND       PRES   REMARKS
WAUSAU         CLOUDY    84  43  23 SW17      29.81S HX  81
MOSINEE        NOT AVBL
MARSHFIELD     MOSUNNY   82  47  29 S14G25    29.82S HX  80
STEVENS POINT  CLOUDY    81  41  24 S17G25    29.84S
WAUPACA        MOSUNNY   84  40  21 S13G22    29.84F HX  81
WAUTOMA        SUNNY     83  45  26 S12G22    29.85F HX  81
WISC RAPIDS    CLOUDY    83  40  21 SW15G25   29.84F HX  81
CAMP DOUGLAS   CLOUDY    83  49  30 S14G22    29.83F HX  81
$$

WIZ011>013-019>022-031-037>040-048>050-240000-
NORTHEAST WISCONSIN

CITY           SKY/WX    TMP DP  RH WIND       PRES   REMARKS
ANTIGO         SUNNY     79  43  27 S20       29.84F
SHAWANO        CLOUDY    85  42  22 SW9G17    29.84F HX  82
OCONTO         CLOUDY    74  49  40 S13G18    29.84F
STURGEON BAY   NOT AVBL
GREEN BAY      SUNNY     80  49  33 SE16      29.86S
MANITOWOC      SUNNY     68  37  32 S22G31    29.91F
APPLETON       MOSUNNY   82  39  21 S15G21    29.85F HX  80
CLINTONVILLE   MOSUNNY   82  39  21 S18G25    29.83F HX  80
OSHKOSH        SUNNY     82  44  26 SW13G21   29.86F HX  80
$$

WIZ032>034-041-042-053>061-240000-
SOUTHWEST WISCONSIN

CITY           SKY/WX    TMP DP  RH WIND       PRES   REMARKS
LA CROSSE      CLOUDY    84  48  28 S17       29.80R HX  82
SPARTA         CLOUDY    84  44  24 S9G21     29.83R HX  81
VIROQUA        CLOUDY    81  42  24 S17G23    29.86S HX  80
BOSCOBEL       NOT AVBL
PRAIRIE DU CHI SUNNY     84  39  19 S13       29.83F HX  81
PLATTEVILLE    SUNNY     83  45  26 S20       29.88S HX  81
$$

WIZ056-057-062-063-064-067-068-240000-
SOUTH CENTRAL WISCONSIN

CITY           SKY/WX    TMP DP  RH WIND       PRES   REMARKS
REEDSBURG      CLOUDY    82  49  31 S10G17    29.86S HX  80
BARABOO/DELLS  CLOUDY    82  40  22 S15G22    29.87S HX  80
LONE ROCK      CLOUDY    84  43  23 S18G26    29.86F HX  81
MINERAL POINT  MOSUNNY   82  37  20 S12G18    29.89S HX  80
MADISON        CLOUDY    81  46  29 S13       29.87F HX  80
MIDDLETON      CLOUDY    83  40  21 S12       29.88S HX  81
WATERTOWN      SUNNY     81  46  28 SW12      29.88F HX  80
MONROE         CLOUDY    81  45  28 S10G17    29.89F
JANESVILLE     SUNNY     84  41  21 S13       29.89F HX  81
$$

WIZ051-052-058>065-066-070>072-240000-
SOUTHEAST WISCONSIN

CITY           SKY/WX    TMP DP  RH WIND       PRES   REMARKS
MILWAUKEE      MOSUNNY   75  41  29 S12       29.92F
WAUKESHA       SUNNY     77  45  31 SE12      29.93S
MILWAUKEE/TIMM SUNNY     79  36  21 S12       29.92F
RACINE         SUNNY     72  36  26 S10       29.95F
BURLINGTON     SUNNY     79  43  27 SE10      29.92S
KENOSHA        SUNNY     76  39  26 SE12      29.93F
FOND DU LAC    SUNNY     83  45  26 S13       29.87F HX  81
SHEBOYGAN      SUNNY     71  41  33 S9        29.92S
WEST BEND      SUNNY     77  43  29 SE6       29.91S
JUNEAU         SUNNY     81  45  28 S16G23    29.90S HX  80
$$

LSZ147-162-240000-
LAKE SUPERIOR

STATION/POSITION TIME  TEMP    WIND        PRES    WAVE
                       AIR SEA DIR/SP/G            HT/PER
                 (UTC) (F)     (DEG/KT/KT) (MB)    (FT/S)
W MID LAKE BUOY  2250   55 38  300/  4/  4 1006.3F   1/ 4
DEVILS ISLAND    2300   68     230/  8/ 10 1006.1F
SAXON HARBOR     2300   74      80/  9/ 17 1006.4R
$$

LMZ867-665-643>646-240000-
LAKE MICHIGAN

STATION/POSITION TIME  TEMP    WIND        PRES    WAVE
                       AIR SEA DIR/SP/G            HT/PER
                 (UTC) (F)     (DEG/KT/KT) (MB)    (FT/S)
CHAMBERS ISLAND  2200   71     140/  9/ 17 1011.5F
N MID LAKE BUOY  2250   52 45  200/ 16/ 17 1012.3F   2/ 4
NORTHPORT PIER   2200   64     160/ 10/ 18 1012.2F
KEWAUNEE LAKESHO 2300   54                 1012.3F
SHEBOYGAN LAKESH 2300   56     180/ 16/ 17 1013.5F
PORT WASHINGTON  2200   62     190/  6/ 12 1014.2F
S MID LAKE BUOY  2250   61 53  140/  4/  4 1014.0F   0
KENOSHA   LAKESH 2300   63     180/ 10/ 12 1013.2F
$$

TC  - TEMPERATURE IN CELSIUS
VSB - VISIBILITY IN STATUTE MILES
WCI - WIND CHILL INDEX
HX  - HEAT INDEX




USA.gov is the U.S. government's official web portal to all federal, state and local government web resources and services.